Voltar ao catálogo

STARLINK-31117

AtivoComunicaçõesVLEO
NORAD 58776·PAYLOAD·🇺🇸 United States

Lançado Jan 14, 2024 de Vandenberg Space Force Base

Loading…

Próximas Passagens (próximas 24 horas)

TLE

AtualizadoSource: CelesTrak SupGP

Época: Sep 15, 2026, 02:28 UTC

1 58776C 24011M   26258.10326389 -.00068050  00000+0 -20106-2 0  2585
2 58776  53.1587 212.6827 0001324  90.7661  31.0476 15.34424778    18

Acompanhe STARLINK-31117 em tempo real com AllMySat

Download on the App Store